Location: ??????????
(41.2581°N, 22.8006°E)
Time: 03:52:29
(UTC+00:00)

Cosmos 923 Rocket - Pass Details

Date: 13 December 2025
Orbit: 755 x 780 km, 74.0° (Epoch: 12 January)

Event Time Altitude Azimuth Distance (km) Brightness Sun altitude
Rises 17:23:15 0° 338° (NNW) 3,222 7.4 -26.0°
Reaches altitude 10° 17:25:38 10° 336° (NNW) 2,291 6.6 -26.5°
Maximum altitude 17:30:48 71° 253° (WSW) 799 4.1 -27.4°
Enters shadow 17:32:46 38° 180° (S) 1,142 4.9 -27.8°
